Location: Zagreb
(45.8000°N, 16.0000°E)
Time: 19:50:23
(UTC+01:00)

ISS - Visible Passes

Search period start: 06 December 2019 00:00
Search period end: 16 December 2019 00:00
Orbit: 411 x 421 km, 51.6° (Epoch: 07 December)

Date Brightness Start Highest point End Pass type
(mag) Time Alt. Az. Time Alt. Az. Time Alt. Az.
06 Dec -2.8 16:51:05 10° NW 16:54:11 33° N 16:57:17 10° ENE visible
06 Dec -2.7 18:27:48 10° WNW 18:30:13 44° WNW 18:30:13 44° WNW visible
07 Dec -3.8 17:39:19 10° WNW 17:42:41 70° NNE 17:44:04 32° ESE visible
07 Dec -0.3 19:16:34 10° W 19:17:00 12° W 19:17:00 12° W visible
08 Dec -3.5 16:50:51 10° WNW 16:54:09 50° NNE 16:57:26 10° E visible
08 Dec -2.3 18:27:45 10° WNW 18:30:48 33° SW 18:31:03 32° SSW visible
09 Dec -3.0 17:39:07 10° WNW 17:42:23 53° SW 17:45:21 12° SE visible
10 Dec -3.7 16:50:34 10° WNW 16:53:56 84° SSW 16:57:17 10° ESE visible
10 Dec -0.7 18:28:25 10° W 18:30:12 14° SW 18:32:00 10° SSW visible
11 Dec -1.2 17:39:13 10° W 17:41:54 22° SW 17:44:33 10° S visible
12 Dec -1.9 16:50:24 10° WNW 16:53:30 35° SW 16:56:35 10° SSE visible
14 Dec -0.4 16:50:51 10° W 16:52:50 15° SW 16:54:48 10° S visible
